Regional Weather Roundup
Issued by NWS Wakefield, VA

Home | Current Version | Previous Version | Graphics & Text | Print | Product List | Glossary On
Versions: 1 2 3 4 5 6 7 8 9 10 11 12 13 14 15 16 17 18 19 20 21 22 23 24 25 26 27
000
ASUS41 KAKQ 192015
RWRAKQ

REGIONAL WEATHER ROUNDUP
NATIONAL WEATHER SERVICE WAKEFIELD VA
300 PM EST FRI JAN 19 2018

Note: "fair" indicates few or no clouds below 12,000 feet with no
significant weather and/or obstructions to visibility. * = Denotes
station may not report precipitation (e.g., rain,snow,etc.),
thunder or fog.

VAZ042-051-052>054-056-192100-
NORTHERN VIRGINIA

CITY           SKY/WX    TMP DP  RH WIND       PRES   REMARKS
WASH NATIONAL  FAIR      50  11  20 S13       30.05S
DULLES         FAIR      53   8  16 S9        30.03F
FORT BELVOIR   FAIR      52   7  16 S7        30.04F
QUANTICO       NOT AVBL
FREDERICKSBRG* FAIR      57  14  17 SW9       30.03F
STAFFORD*      FAIR      57   6  13 SW5       30.08S
WARRENTON      FAIR      57 -18   4 SW6       30.03S
CULPEPER*      FAIR      56  -9   7 SW7       30.04S
MANASSAS*      FAIR      54   7  15 SW8       30.04S
LEESBURG*      FAIR      55  19  24 W8        30.03S
WINCHESTER     FAIR      52  12  20 CALM      30.02F
FRONT ROYAL*   FAIR      54  10  17 MISG      30.00F
LURAY*         FAIR      54   7  15 S7        30.01S
$$

VAZ048-049-060>072-079>083-192100-
CENTRAL AND SOUTH CENTRAL VIRGINIA

CITY           SKY/WX    TMP DP  RH WIND       PRES   REMARKS
RICHMOND       FAIR      55   7  14 SW9       30.07S
CHESTERFIELD*  NOT AVBL
PETERSBURG*    FAIR      55   3  12 SW9       30.08S
HANOVER        FAIR      55   6  14 SW8       30.07S
TAPPAHANNOCK*  FAIR      55  12  18 SW6       30.07S
QUINTON*       FAIR      54   9  16 SW5       30.06F
CHARLOTTSVILLE FAIR      56   2  11 SW10G17   30.02F
GORDONSVILLE*  FAIR      55   7  14 SW10      30.02F
ORANGE*        FAIR      55   5  13 CALM      30.03F
LOUISA*        FAIR      54   3  13 SW8       30.08F
BUMPASS*       FAIR      54  -6   8 SW9       30.05F
FARMVILLE*     FAIR      51   9  18 SW9       30.07S
CREWE*         FAIR      50  11  21 SW6       30.08F
FORT PICKETT*  FAIR      48  15  26 W12       30.08F
CHASE CITY*    FAIR      49  10  20 SW3       30.11F
CLARKSVILLE*   FAIR      50   9  18 SW5       30.12S
SOUTH HILL*    FAIR      50  11  20 SW9       30.17S
LAWRENCEVILLE* FAIR      52   5  15 SW9       30.10S
EMPORIA*       FAIR      54  14  20 SW9       30.12S
$$

VAZ088>098-192100-
SOUTHEAST VIRGINIA

CITY           SKY/WX    TMP DP  RH WIND       PRES   REMARKS
NORFOLK        FAIR      54  15  21 W7        30.08F
VIRGINIA BEACH FAIR      53  13  20 W7        30.08F
NORFOLK NAVAL  FAIR      53  17  24 VRB5      30.09F
WEST POINT*    FAIR      53  13  20 S3        30.08F
SALUDA*        FAIR      47  17  30 E5        30.07S
NEWPORT NEWS   FAIR      52  17  25 SW9       30.08F
LANGLEY AFB    FAIR      52  20  28 SW7       30.08F
FORT EUSTIS    FAIR      50  17  27 S7        30.05F
WILLIAMSBURG*  FAIR      57  25  28 CALM      30.08F
HR EXEC AP*    FAIR      54  17  23 SW7       30.10F
FRANKLIN*      FAIR      53  15  22 SW8       30.10F
US460-WAKEFLD  FAIR      54  13  19 SW7       30.08F
$$

VAZ020-022-025-037-045-192100-
WEST CENTRAL AND SOUTHWEST VIRGINIA

CITY           SKY/WX    TMP DP  RH WIND       PRES   REMARKS
STAUNTON*      FAIR      51   8  18 S16       30.03F
WAYNESBORO*    FAIR      50   3  14 SW6G17    30.03F
HOT SPRINGS VA FAIR      38 -10  12 W22G30    30.01S
LYNCHBURG      FAIR      49   8  19 SW9       30.08F
DANVILLE       FAIR      49   9  19 SW9       30.12F
SOUTH BOSTON*  FAIR      50   3  15 SW9       30.12S
MARTINSVILLE   FAIR      53   0  11 SW6       30.13F
ROANOKE        FAIR      52   5  15 W14       30.10F
BLACKSBURG     FAIR      48   6  18 SW7       30.12F
DUBLIN*        FAIR      47  12  24 SW12      30.12S
MARION*        FAIR      41   0  17 W18       30.15F
HILLSVILLE*    FAIR      44  -6  12 NW9       30.10R
RICHLANDS*     FAIR      39   8  27 W6        30.13F
WISE*          FAIR      39  12  33 SW16      30.14S
ABINGDON*      FAIR      42   9  25 W7        30.18S
$$

MDZ021>025-VAZ099-100-192100-
SOUTHERN MARYLAND AND THE DELMARVA PENINSULA

CITY           SKY/WX    TMP DP  RH WIND       PRES   REMARKS
PATUXENT RIVER NOT AVBL
BAY BRIDGE APT FAIR      48  21  34 S5        30.05S
LEONARDTOWN    FAIR      50  10  20 SW6       30.07S
DOVER          FAIR      48  26  42 W12       30.04F
GEORGETOWN     FAIR      51  15  23 VRB5      30.05F
EASTON         SUNNY     50  12  22 W6        30.09F
CAMBRIDGE      SUNNY     50  16  25 CALM      30.06S
SALISBURY      SUNNY     52  16  24 W3        30.05F
OCEAN CITY     FAIR      42  31  64 VRB6      30.07F
WALLOPS ISLAND FAIR      46  25  43 S12       30.08S
ACCOMACK*      FAIR      49  17  28 W3        30.07S
$$

NCZ012>017-030>032-192100-
NORTH CENTRAL AND EASTERN NORTH CAROLINA

CITY           SKY/WX    TMP DP  RH WIND       PRES   REMARKS
ROANOKE RAPIDS FAIR      54  21  28 SW8       30.11F
RALEIGH        FAIR      48  21  34 SW9       30.14F
ELIZABETH CITY FAIR      53  32  44 SW13      30.10F
AHOSKIE*       FAIR      53  23  31 CALM      30.11F
EDENTON*       FAIR      56  18  22 SW8       30.12F
CURRITUCK*     FAIR      51  21  31 SW10      30.10F
KILL DEVIL HLS FAIR      49  19  30 CALM      30.11F
MANTEO         FAIR      48  20  33 W8        30.13F
CAPE HATTERAS  FAIR      50  33  52 SW7       30.17F
TARBORO*       NOT AVBL
GOLDSBORO      FAIR      57  19  23 W8        30.13F
WASHINGTON     FAIR      57  14  18 SW10      30.15F
GREENVILLE     FAIR      55  18  22 SW12      30.15F
NEW BERN       FAIR      56  21  25 W9        30.17F
WILMINGTON     FAIR      60  20  21 W9        30.18F
$$

VAZ048-192100-
ELSEWHERE

CITY           SKY/WX    TMP DP  RH WIND       PRES   REMARKS
HARRISBURG PA  FAIR      42  22  44 W8G18     29.99F
BALTIMORE      FAIR      50  14  23 S8        30.03F
ANNAPOLIS      FAIR      41  29  62 VRB7      30.05S
ANDREWS AFB    FAIR      52   4  14 SW12      30.03S
PHILADELPHIA   FAIR      45  16  31 W16       30.03F
HENDERSON NC   FAIR      49   4  15 W7        30.12S
GREENSBORO     FAIR      49   5  16 W8        30.12F
ROCKY MOUNT    NOT AVBL
$$

VAZ100-192100-
MARINE

STATION/POSITION TIME  TEMP    WIND        PRES    WAVE   SWELL
                       AIR SEA DIR/SP/G            HT/PER HT/PER
                 (UTC) (F)     (DEG/KT/KT) (MB)    (FT/S) (FT/S)
BRANDYWINE LGT   1942   43     320/  6/  7 1017.9F
CAPE MAY NJ      1948   39 32  280/  3/  4 1017.2F
LEWES DE         1942   41 33  340/  8/ 10 1017.4F
15NM E FENWICK I 1950   39 40  190/ 10/ 10 1018.4F   2/10   2/10
OCEAN-CITY-INLET 1942   39 36  200/  6/  8 1018.5F
WACHAPREAGUE VA  1942   43 35  190/  7/  8 1018.5S
THOMAS POINT MD  2000   36 32  190/  7/  8   N/A
GOOSES REEF MD   2000   37 33  200/ 12/ 14 1018.4    1/ 2
COVE POINT MD    1942   35     180/ 10/ 11 1018.8F
SOLOMONS ISLAND  1942   41 34  110/  7/  8 1017.6F
BISHOPS HEAD MD  1942   37 34  190/  7/  7 1018.7F
PINEY POINT MD   1948          180/  9/  9   N/A
POTOMAC MD       2000   36 34  210/  6/  8 1017.8    0
CAMBRIDGE MD     1942   46 33              1018.6F
LEWISETTA VA     1942   35 32  120/  6/  7 1018.4S
RAPPAHANNOCK LGT 1948          180/ 11/ 12 1019.2F
STINGRAY PT      2000   38 34  170/  8/ 10 1021.4    0
YORK RVR RNG VA  1942   41     180/  4/  5 1019.2F
YORKTOWN VA      1942   50 35  200/  4/  8 1018.1F
DOMINION TERM VA 1942   46     110/  3/  4 1018.9F
KIPTOPEKE VA     1942      34  240/  6/  7   N/A
CAPE HENRY VA    1942   49     290/  4/  5   N/A
WILLOUBY STN VA  1948           CALM  /  1 1018.5F
S CRANEY ISL VA  1942   45      80/  3/  5 1018.6F
CAPE HENRY BUOY  2000      41                N/A     2/11   2/11
1ST LANDING BUOY 2000   42 36  300/  4/  4 1018.8    0
CAPE CHARLES BUO 1951      38                N/A     2/10
64NM E OF VA BCH 1950   45 62  260/ 14/ 17 1019.6F   4/11   3/11
DUCK PIER NC     1942   45 39  240/ 10/ 13 1019.2F
44100 DUCK FRF   1945      43                N/A     3/11   2/11
44056 DUCK FRF   2000      39                N/A     2/11   2/11
OREGON INLET NC  1942   39 36  190/ 12/ 13 1020.3F
HATTERAS NC      1942   50 45  250/  9/ 11 1021.3F
DIAMOND SHLS NC  2000   56     260/ 17/ 21 1022.0
CAPE LOOKOUT NC  2000          240/ 10/ 13 1022.3F
$$




USA.gov is the U.S. government's official web portal to all federal, state and local government web resources and services.